Location: Unspecified
(0.0000°N, 0.0000°E)
Time: 19:46:19
(UTC+00:00)

Courier 1B Rocket - Pass Details

Date: 01 May 2024
Orbit: 920 x 1201 km, 28.2° (Epoch: 19 May)

Event Time Altitude Azimuth Distance (km) Brightness Sun altitude
Rises 20:57:37 0° 262° (W) 3,741 8.7 -43.1°
Reaches altitude 10° 21:00:32 10° 272° (W) 2,833 8.0 -43.8°
Enters shadow 21:04:10 26° 298° (WNW) 1,953 6.9 -44.6°
